Buckeye, AZ

3:23 AM MST on April 24, 2017 (GMT -0700)
Buckeye Municipal

Weather History for KBXK - April, 2013

Change the Weather History Date:

Tuesday, April 16, 2013

  Actual Average (KGYR) Record (KGYR)
Temperature  
Mean Temperature 66 °F -  
Max Temperature 77 °F 82 °F 95 °F (1997)
Min Temperature 55 °F 53 °F 35 °F (1998)
Cooling Degree Days 1    
Growing Degree Days 16 (Base 50)    
Moisture  
Dew Point 34 °F    
Average Humidity 34    
Maximum Humidity 63    
Minimum Humidity 10    
Precipitation  
Precipitation 0.00 in - - ()
Sea Level Pressure  
Sea Level Pressure 29.76 in    
Wind  
Wind Speed 8 mph (SW)    
Max Wind Speed 21 mph    
Max Gust Speed 29 mph    
Visibility 10 miles    
Events      
Averages and records for this station are not official NWS values.
T = Trace of Precipitation, MM = Missing Value Source: NWS Daily Summary

Daily Weather History Graph

Daily Weather History Graph

Search for Another Location

Airport or City:

Trip Planner

Search our weather history database for the weather conditions in past years. The results will help you decide how hot, cold, wet, or windy it might be!

Date:

Astronomy

Apr. 16, 2013 Rise Set
Actual Time 5:58 AM MST 7:02 PM MST
Civil Twilight 5:33 AM MST 7:28 PM MST
Nautical Twilight 5:02 AM MST 7:58 PM MST
Astronomical Twilight 4:31 AM MST 8:30 PM MST
Moon 10:28 AM MST (4/16) No Moon Set
Length of Visible Light 13h 54m
Length of Day
13h 03m
Waxing Crescent, 34% of the Moon is Illuminated
Apr 16
Waxing Crescent
Apr 18
First Quarter
Apr 25
Full
May 2
Last Quarter
May 9
New

Hourly Weather History & Observations

Time (MST) Temp. Dew Point Humidity Pressure Visibility Wind Dir Wind Speed Gust Speed Precip Events Conditions
12:15 AM 66.2 °F 35.6 °F 32% 29.74 in 10.0 mi SE 5.8 mph - N/A   Clear
12:35 AM 62.6 °F 37.4 °F 39% 29.74 in 10.0 mi SSE 3.5 mph - N/A   Clear
12:55 AM 64.4 °F 37.4 °F 37% 29.74 in 10.0 mi SE 4.6 mph - N/A   Clear
1:15 AM 62.6 °F 39.2 °F 42% 29.74 in 10.0 mi South 6.9 mph - N/A   Clear
1:35 AM 62.6 °F 39.2 °F 42% 29.73 in 10.0 mi SSW 6.9 mph - N/A   Clear
1:55 AM 62.6 °F 39.2 °F 42% 29.73 in 10.0 mi South 5.8 mph - N/A   Clear
2:15 AM 62.6 °F 41.0 °F 45% 29.74 in 10.0 mi Calm Calm - N/A   Clear
2:35 AM 59.0 °F 37.4 °F 45% 29.74 in 10.0 mi NNW 3.5 mph - N/A   Clear
2:55 AM 59.0 °F 37.4 °F 45% 29.74 in 10.0 mi Calm Calm - N/A   Clear
3:15 AM 59.0 °F 37.4 °F 45% 29.74 in 10.0 mi ENE 4.6 mph - N/A   Clear
3:35 AM 57.2 °F 39.2 °F 51% 29.74 in 10.0 mi NE 3.5 mph - N/A   Clear
3:55 AM 57.2 °F 37.4 °F 48% 29.74 in 10.0 mi North 3.5 mph - N/A   Clear
4:15 AM 57.2 °F 37.4 °F 48% 29.74 in 10.0 mi NNW 3.5 mph - N/A   Scattered Clouds
4:35 AM 55.4 °F 37.4 °F 51% 29.75 in 10.0 mi Calm Calm - N/A   Scattered Clouds
5:15 AM 55.4 °F 37.4 °F 51% 29.75 in 10.0 mi West 5.8 mph - N/A   Partly Cloudy
5:35 AM 55.4 °F 39.2 °F 54% 29.76 in 10.0 mi WSW 4.6 mph - N/A   Clear
5:55 AM 55.4 °F 41.0 °F 58% 29.76 in 10.0 mi WSW 3.5 mph - N/A   Clear
6:15 AM 57.2 °F 41.0 °F 55% 29.76 in 10.0 mi Calm Calm - N/A   Clear
6:35 AM 57.2 °F 41.0 °F 55% 29.77 in 10.0 mi SSW 4.6 mph - N/A   Clear
6:55 AM 57.2 °F 44.6 °F 63% 29.78 in 8.0 mi Calm Calm - N/A   Clear
7:15 AM 59.0 °F 46.4 °F 63% 29.78 in 7.0 mi SSE 4.6 mph - N/A   Clear
7:35 AM 62.6 °F 46.4 °F 55% 29.80 in 10.0 mi SSW 4.6 mph - N/A   Clear
7:55 AM 62.6 °F 46.4 °F 55% 29.80 in 10.0 mi SSE 5.8 mph - N/A   Clear
8:15 AM 64.4 °F 48.2 °F 56% 29.81 in 10.0 mi SSW 11.5 mph - N/A   Clear
8:35 AM 64.4 °F 46.4 °F 52% 29.81 in 10.0 mi SSW 12.7 mph 19.6 mph N/A   Clear
8:55 AM 66.2 °F 44.6 °F 46% 29.81 in 10.0 mi SSW 13.8 mph 21.9 mph N/A   Clear
9:15 AM 66.2 °F 44.6 °F 46% 29.82 in 10.0 mi SSW 9.2 mph - N/A   Clear
9:35 AM 66.2 °F 41.0 °F 40% 29.81 in 10.0 mi WSW 10.4 mph - N/A   Clear
9:55 AM 66.2 °F 42.8 °F 43% 29.81 in 10.0 mi WSW 10.4 mph - N/A   Clear
10:15 AM 68.0 °F 44.6 °F 43% 29.81 in 10.0 mi West 10.4 mph - N/A   Clear
10:35 AM 68.0 °F 46.4 °F 46% 29.80 in 10.0 mi SW 9.2 mph 20.7 mph N/A   Partly Cloudy
10:55 AM 69.8 °F 44.6 °F 40% 29.81 in 10.0 mi South 10.4 mph 17.3 mph N/A   Partly Cloudy
11:15 AM 69.8 °F 44.6 °F 40% 29.80 in 10.0 mi SW 11.5 mph 18.4 mph N/A   Partly Cloudy
11:35 AM 71.6 °F 44.6 °F 38% 29.79 in 9.0 mi SW 10.4 mph 18.4 mph N/A   Partly Cloudy
11:55 AM 71.6 °F 46.4 °F 41% 29.79 in 10.0 mi SW 18.4 mph - N/A   Partly Cloudy
12:15 PM 73.4 °F 44.6 °F 36% 29.78 in 10.0 mi SW 13.8 mph 21.9 mph N/A   Partly Cloudy
12:35 PM 73.4 °F 39.2 °F 29% 29.78 in 10.0 mi SW 11.5 mph 21.9 mph N/A   Partly Cloudy
12:55 PM 73.4 °F 37.4 °F 27% 29.77 in 10.0 mi SW 13.8 mph 23.0 mph N/A   Clear
1:15 PM 75.2 °F 35.6 °F 24% 29.77 in 10.0 mi WSW 19.6 mph 25.3 mph N/A   Clear
1:35 PM 75.2 °F 35.6 °F 24% 29.76 in 10.0 mi WSW 13.8 mph 20.7 mph N/A   Clear
1:55 PM 75.2 °F 33.8 °F 22% 29.75 in 10.0 mi WSW 11.5 mph 24.2 mph N/A   Clear
2:15 PM 75.2 °F 33.8 °F 22% 29.75 in 10.0 mi WSW 17.3 mph 24.2 mph N/A   Clear
2:35 PM 77.0 °F 35.6 °F 22% 29.74 in 10.0 mi SW 11.5 mph 21.9 mph N/A   Clear
2:55 PM 77.0 °F 35.6 °F 22% 29.74 in 10.0 mi SW 17.3 mph 26.5 mph N/A   Clear
3:15 PM 75.2 °F 32.0 °F 21% 29.73 in 10.0 mi WSW 12.7 mph 28.8 mph N/A   Clear
3:35 PM 77.0 °F 32.0 °F 19% 29.73 in 10.0 mi WSW 17.3 mph 24.2 mph N/A   Clear
3:55 PM 77.0 °F 33.8 °F 21% 29.72 in 10.0 mi West 13.8 mph 25.3 mph N/A   Clear
4:15 PM 77.0 °F 35.6 °F 22% 29.72 in 10.0 mi SW 18.4 mph 25.3 mph N/A   Clear
4:35 PM 75.2 °F 35.6 °F 24% 29.71 in 10.0 mi WSW 20.7 mph 27.6 mph N/A   Clear
4:55 PM 75.2 °F 35.6 °F 24% 29.71 in 10.0 mi WSW 15.0 mph 19.6 mph N/A   Clear
5:15 PM 75.2 °F 32.0 °F 21% 29.71 in 10.0 mi WSW 19.6 mph 23.0 mph N/A   Clear
5:35 PM 75.2 °F 28.4 °F 18% 29.71 in 10.0 mi SW 17.3 mph 26.5 mph N/A   Clear
5:55 PM 75.2 °F 23.0 °F 14% 29.71 in 10.0 mi WSW 18.4 mph 25.3 mph N/A   Clear
6:15 PM 73.4 °F 17.6 °F 12% 29.71 in 10.0 mi WSW 18.4 mph 25.3 mph N/A   Clear
6:35 PM 71.6 °F 14.0 °F 11% 29.72 in 10.0 mi WSW 18.4 mph 21.9 mph N/A   Clear
6:55 PM 71.6 °F 12.2 °F 10% 29.72 in 10.0 mi WSW 16.1 mph 25.3 mph N/A   Clear
7:15 PM 68.0 °F 14.0 °F 12% 29.72 in 10.0 mi WSW 11.5 mph 17.3 mph N/A   Clear
7:35 PM 68.0 °F 14.0 °F 12% 29.72 in 10.0 mi WSW 16.1 mph 20.7 mph N/A   Clear
7:55 PM 68.0 °F 14.0 °F 12% 29.73 in 10.0 mi WSW 15.0 mph 19.6 mph N/A   Clear
8:15 PM 66.2 °F 15.8 °F 14% 29.75 in 10.0 mi WSW 10.4 mph 17.3 mph N/A   Clear
8:35 PM 66.2 °F 15.8 °F 14% 29.74 in 10.0 mi West 13.8 mph - N/A   Clear
8:55 PM 66.2 °F 14.0 °F 13% 29.75 in 10.0 mi WNW 12.7 mph 17.3 mph N/A   Clear
9:15 PM 64.4 °F 15.8 °F 15% 29.76 in 10.0 mi WNW 9.2 mph - N/A   Clear
9:35 PM 64.4 °F 19.4 °F 18% 29.77 in 10.0 mi WNW 9.2 mph - N/A   Clear
9:55 PM 62.6 °F 23.0 °F 22% 29.77 in 10.0 mi WNW 6.9 mph - N/A   Clear
10:15 PM 62.6 °F 23.0 °F 22% 29.78 in 10.0 mi West 4.6 mph - N/A   Clear
10:35 PM 59.0 °F 24.8 °F 27% 29.79 in 10.0 mi West 4.6 mph - N/A   Clear
10:55 PM 57.2 °F 28.4 °F 33% 29.80 in 10.0 mi SE 3.5 mph - N/A   Clear
11:15 PM 57.2 °F 26.6 °F 31% 29.79 in 10.0 mi Calm Calm - N/A   Clear
11:35 PM 55.4 °F 28.4 °F 36% 29.80 in 10.0 mi Calm Calm - N/A   Clear
11:55 PM 55.4 °F 26.6 °F 33% 29.81 in 10.0 mi ESE 3.5 mph - N/A   Clear